Date,TemperatureHighF,TemperatureAvgF,TemperatureLowF,DewpointHighF,DewpointAvgF,DewpointLowF,HumidityHigh,HumidityAvg,HumidityLow,PressureMaxIn,PressureMinIn,WindSpeedMaxMPH,WindSpeedAvgMPH,GustSpeedMaxMPH,PrecipitationSumIn
2013-10-1,85.6,82.5,79.4,75.1,72.9,71.0,79,73,69,24.83,24.72,8,1,14,0.00
2013-10-2,85.1,82.2,80.5,74.6,73.3,72.4,81,75,68,24.83,24.73,11,2,15,0.00
2013-10-3,84.7,81.9,80.1,75.2,73.7,72.1,82,77,71,24.86,24.73,7,2,13,0.00
2013-10-4,85.4,82.0,78.7,73.6,72.3,70.0,80,73,66,24.85,24.76,7,1,12,0.00
2013-10-5,86.1,80.6,72.9,74.9,71.8,69.2,90,75,65,24.82,24.75,5,1,11,0.00
2013-10-6,85.7,81.5,76.7,75.0,73.0,71.0,88,76,66,24.78,24.69,5,0,10,0.11
2013-10-7,88.4,78.8,73.6,76.8,72.5,69.7,93,82,62,24.73,24.66,10,1,24,0.10
2013-10-8,88.0,80.0,75.4,77.5,74.4,70.6,95,84,65,24.73,24.64,5,0,11,0.09
2013-10-9,83.9,77.6,71.9,75.5,72.5,69.1,92,85,74,24.79,24.68,7,1,14,0.00
2013-10-10,85.4,79.6,72.6,74.6,71.9,69.4,92,78,65,24.82,24.73,11,1,19,0.01
2013-10-11,84.4,78.8,71.0,71.7,68.7,66.7,89,72,61,24.82,24.73,6,1,14,0.00
2013-10-12,84.7,78.1,69.4,70.6,68.4,65.4,91,73,59,24.84,24.74,6,1,12,0.00
2013-10-13,84.2,79.0,73.0,71.1,67.8,64.8,89,70,54,24.83,24.74,7,1,15,0.00
2013-10-14,84.4,78.3,70.9,71.5,68.8,66.7,87,73,62,24.80,24.72,7,1,14,0.00
2013-10-15,84.5,78.7,71.8,72.8,70.3,68.6,91,76,65,24.77,24.69,7,1,12,0.00
2013-10-16,83.7,78.4,73.3,72.2,69.7,67.9,90,75,65,24.76,24.69,7,0,10,0.02
2013-10-17,84.2,79.3,72.2,72.7,71.2,68.9,91,77,67,29.72,24.68,7,1,10,0.00
2013-10-18,85.5,80.5,73.1,74.1,72.0,69.5,90,76,68,29.72,29.62,7,1,12,0.00
2013-10-19,86.5,82.0,77.9,75.5,73.0,71.2,82,75,65,29.69,29.62,7,1,14,0.00
2013-10-20,85.5,81.3,77.5,77.1,75.0,73.5,89,82,74,29.72,29.59,7,0,10,0.00
2013-10-21,87.2,82.4,77.9,76.9,75.6,73.5,90,80,70,29.73,29.66,10,1,15,0.11
2013-10-22,88.0,82.3,77.0,78.1,75.6,73.1,89,81,67,29.69,29.61,9,2,17,0.00
2013-10-23,87.2,80.4,76.3,75.6,73.1,68.9,92,79,63,29.68,29.54,7,0,18,0.00
2013-10-24,80.2,76.8,73.0,69.0,66.0,62.5,79,70,60,29.75,29.62,8,1,16,0.00
2013-10-25,81.6,77.0,70.0,67.0,64.7,62.9,81,66,57,29.83,29.71,9,2,22,0.00
2013-10-26,81.8,77.7,71.2,66.9,63.9,62.0,73,63,57,29.83,29.73,5,1,15,0.00
2013-10-27,81.3,74.7,67.4,66.3,63.3,60.2,78,68,58,29.81,29.67,7,1,11,0.00
2013-10-28,83.2,78.5,75.2,67.8,65.4,63.1,70,64,53,29.85,29.72,9,1,14,0.00
2013-10-29,83.2,79.2,73.2,70.2,67.7,65.5,80,68,62,29.87,29.75,11,2,16,0.00
2013-10-30,82.5,79.2,76.9,69.7,67.7,65.7,73,68,60,29.85,29.76,9,2,15,0.00
2013-10-31,84.0,79.8,75.1,72.8,70.9,67.2,84,75,67,29.79,29.72,7,2,14,0.04